STARLINK-32326, 61674

Orbit data source: Space-Track

STARLINK-32326, 61674 is a payload satellite owned by SpaceX/Seattle (US) in LEO that was launched on Sat, 26 Oct 2024 UTC via an FALCON 9 launch vehicle from the Air Force Eastern Test Range (AFETR). Payloads include a variety of satellites, spacecraft, and rockets equipped with specific instruments for various scientific and technological missions. These include communications satellites like Starlink; space stations such as the ISS; scientific satellites like the Hubble; Earth observation satellites from companies like Planet Labs, Umbra, and HawkEye 360; GPS; miniature CubeSats for education and research; and military/defense satellites.

Loading next visibility...
STARLINK-32326 details
Identifier
61674, 2024-193P
Orbit
LEO
Last TLE update16 hours ago
Origin
Flag of USSpaceX/Seattle (US)
ManufacturerSpaceX/Seattle
MissionOperational spacecraft
Bus & MotorSTARLINK V2M, Unknown motor
Mass730 kg wet, ~700 kg dry
Launch date (UTC)
2024-10-26 (2 months ago)
Launch vehicle
FALCON 9
Launch site
Air Force Eastern Test Range (AFETR)
Object type
Payload
Rocket body
Debris
Shape & HBRUnknown
Radar Cross SectionLarge (>1 m²)

Expand to show TLE details & history

TLE from 16 hours ago
0 STARLINK-32326
1 61674U 24193P   24361.20724446 -.00004997  00000-0 -11517-3 0  9997
2 61674  53.1603 329.8057 0000679  72.2713 287.8366 15.39586637  9363
Epoch: 2024-12-26T04:58Z
Definitive object data (Epoch: 2024-12-26T04:58:25.921Z)
Latitude-0.00001°
Longitude160.00774°
Altitude448.092 km
Speed7.645 km/s
True Right ascension21h 59m 13s
True Declination0° 00' 00"
Sunlit
Object was in daylight at TLE epoch
Visualization TLE readout
Latitude53.30797°
Longitude-112.02255°
Altitude453.473 km
Speed7.647 km/s
Apparent Right ascension06h 19m 02s
Apparent Declination10° 27' 01"
Sunlit
Object is in full shadow
Visualization observer readout
Local Sidereal Time20:19:38
Azimuth35.806° NE
Elevation-32.4°
Doppler factor1
Orbital elements
Apogee altitude448.052 km
Perigee altitude447.125 km
Semi-major axis6,825.725 km
Eccentricity0.0000679
Inclination53.1603°
RAAN329.8057°
Arg. of periapsis72.2713°
True anomaly287.82919°
Mean anomaly287.8366°
Eccentric anomaly287.8329°
Mean motion3.84875 °/min
BSTAR-0.00011517
Orbital period93.54 mins
Loading maneuver chart data...
Loading historical data...
Loading historical data...
Loading historical data...
Loading historical data...
Loading historical data...
Loading historical data...
Loading historical data...

STARLINK-32326 Visibility forecast

Observer location: undefined°, undefined

Span
Click to sort rows by Start time (UTC) header in descending order
Start Az.
Max El. time (UTC)
Max El. Az.
Max El.
End time (UTC)
End Az.
4 mins2024-12-26 23:49:44.150Z170.961° S2024-12-26 23:51:44.150Z129.746° SE19.134°2024-12-26 23:53:44.150Z88.295° E
5 mins2024-12-27 01:26:44.150Z261.653° W2024-12-27 01:28:44.150Z320.693° NNW34.239°2024-12-27 01:31:44.150Z36.355° NE
4 mins2024-12-27 07:59:44.150Z288.047° WNW2024-12-27 08:01:44.150Z195.017° SSW36.721°2024-12-27 08:03:44.150Z151.982° SSE
|